This is the latest recevied weather packets stored in our database for station/object N3SBK. If no packets are shown the sender has not sent any weather packets the latest 1 day(s).
| Time | Temp. | Humidity | Pressure | Rain* | Wind** | Luminosity | Snow |
|---|---|---|---|---|---|---|---|
| 1778044405 | 17.22° C | 59% | 1000.6 hPa | 0 mm | - | 0 W/m² | - |
| 1778044102 | 17.78° C | 58% | 1000.6 hPa | 0 mm | - | 0 W/m² | - |
| 1778043193 | 18.89° C | 51% | 1000 hPa | 0 mm | - | 0 W/m² | - |
| 1778042890 | 18.89° C | 50% | 1000.2 hPa | 0 mm | - | 0 W/m² | - |
| 1778042588 | 18.89° C | 50% | 1000.1 hPa | 0 mm | - | 0 W/m² | - |
| 1778041982 | 18.89° C | 49% | 999.9 hPa | 0 mm | - | 0 W/m² | - |
| 1778041681 | 18.89° C | 49% | 1000.1 hPa | 0 mm | - | 0 W/m² | - |
| 1778041379 | 18.89° C | 49% | 1000.2 hPa | 0 mm | - | 0 W/m² | - |
| 1778041077 | 18.89° C | 50% | 999.6 hPa | 0 mm | - | 0 W/m² | - |
| 1778040774 | 18.89° C | 53% | 999.8 hPa | 0 mm | - | 0 W/m² | - |
| 1778040471 | 18.89° C | 52% | 999.8 hPa | 0 mm | - | 0 W/m² | - |
| 1778040168 | 18.89° C | 52% | 999.6 hPa | 0 mm | - | 0 W/m² | - |
| 1778039865 | 19.44° C | 51% | 999.8 hPa | 0 mm | - | 0 W/m² | - |
| 1778039259 | 18.89° C | 49% | 999.9 hPa | 0 mm | - | 0 W/m² | - |
| 1778038956 | 19.44° C | 49% | 999.8 hPa | 0 mm | - | 0 W/m² | - |
| 1778038653 | 19.44° C | 48% | 999.8 hPa | 0 mm | - | 0 W/m² | - |
| 1778038047 | 18.89° C | 51% | 999.9 hPa | 0 mm | - | 0 W/m² | - |
| 1778037744 | 18.33° C | 52% | 999.9 hPa | 0 mm | - | 0 W/m² | - |
| 1778037440 | 18.33° C | 54% | 1000.1 hPa | 0 mm | - | 0 W/m² | - |
| 1778037138 | 17.78° C | 54% | 1000.1 hPa | 0 mm | - | 0 W/m² | - |
| 1778036836 | 17.78° C | 54% | 1000.1 hPa | 0 mm | - | 0 W/m² | - |
| 1778036533 | 17.78° C | 53% | 1000.1 hPa | 0 mm | - | 0 W/m² | - |
| 1778036230 | 17.78° C | 56% | 1000.1 hPa | 0 mm | - | 0 W/m² | - |
| 1778035926 | 17.22° C | 55% | 1000 hPa | 0 mm | - | 0 W/m² | - |
| 1778035623 | 17.22° C | 58% | 1000 hPa | 0 mm | - | 0 W/m² | - |
* Rain latest hour (hover to see other rain measurements)
** Current wind speed in m/s (hover to see current wind gust speed)